This is the latest recevied weather packets stored in our database for station/object IT9CNT. If no packets are shown the sender has not sent any weather packets the latest 1 day(s).
| Time | Temp. | Humidity | Pressure | Rain* | Wind** | Luminosity | Snow |
|---|---|---|---|---|---|---|---|
| 1778007904 | 16.67° C | 78% | 1012.9 hPa | 0 mm | 2.68 m/s, 88° | - | - |
| 1778007843 | 17.22° C | 78% | 1013 hPa | 0 mm | 2.68 m/s, 92° | - | - |
| 1778007783 | 16.67° C | 79% | 1012.8 hPa | 0 mm | 2.68 m/s, 94° | - | - |
| 1778007723 | 16.67° C | 79% | 1013.1 hPa | 0 mm | 2.24 m/s, 97° | - | - |
| 1778007663 | 17.22° C | 79% | 1013 hPa | 0 mm | 2.24 m/s, 97° | - | - |
| 1778007604 | 17.22° C | 79% | 1013 hPa | 0 mm | 2.24 m/s, 101° | - | - |
| 1778007543 | 16.67° C | 79% | 1013 hPa | 0 mm | 2.24 m/s, 105° | - | - |
| 1778007483 | 16.67° C | 79% | 1013 hPa | 0 mm | 1.79 m/s, 107° | - | - |
| 1778007424 | 17.22° C | 79% | 1013 hPa | 0 mm | 1.79 m/s, 103° | - | - |
| 1778007363 | 17.22° C | 80% | 1013.1 hPa | 0 mm | 1.34 m/s, 102° | - | - |
| 1778007303 | 17.22° C | 80% | 1013.1 hPa | 0 mm | 1.34 m/s, 102° | - | - |
| 1778007243 | 17.22° C | 80% | 1013.1 hPa | 0 mm | 1.34 m/s, 102° | - | - |
| 1778007183 | 17.22° C | 80% | 1013.1 hPa | 0 mm | 1.34 m/s, 104° | - | - |
| 1778007123 | 17.22° C | 80% | 1013 hPa | 0 mm | 1.34 m/s, 103° | - | - |
| 1778007063 | 17.22° C | 80% | 1013.1 hPa | 0 mm | 1.34 m/s, 103° | - | - |
| 1778007003 | 17.22° C | 80% | 1013.1 hPa | 0 mm | 1.34 m/s, 103° | - | - |
| 1778006943 | 17.22° C | 80% | 1013 hPa | 0 mm | 1.34 m/s, 105° | - | - |
| 1778006883 | 17.22° C | 80% | 1013.2 hPa | 0 mm | 1.34 m/s, 108° | - | - |
| 1778006823 | 17.22° C | 80% | 1012.9 hPa | 0 mm | 1.79 m/s, 104° | - | - |
| 1778006763 | 17.22° C | 80% | 1012.9 hPa | 0 mm | 1.79 m/s, 100° | - | - |
| 1778006703 | 17.22° C | 80% | 1012.8 hPa | 0 mm | 1.79 m/s, 104° | - | - |
| 1778006643 | 17.22° C | 80% | 1013 hPa | 0 mm | 1.79 m/s, 104° | - | - |
| 1778006583 | 17.22° C | 80% | 1012.9 hPa | 0 mm | 1.79 m/s, 103° | - | - |
| 1778006523 | 17.22° C | 80% | 1012.9 hPa | 0 mm | 1.79 m/s, 98° | - | - |
| 1778006463 | 17.22° C | 80% | 1012.7 hPa | 0 mm | 1.79 m/s, 94° | - | - |
* Rain latest hour (hover to see other rain measurements)
** Current wind speed in m/s (hover to see current wind gust speed)